sat.trackr.live / text

‹ back to catalog

STARLINK-33816

NORAD 63677 · 2025-085P

PAYLOAD ACTIVE UNKNOWN

§ Identity

Operator
Country
US
Launch date
2025-04-28
Launch site
AFETR
Launch vehicle
Mass (kg)
RCS (m²)

Purposes: comms

External: N2YO · Heavens-Above · Gunter

§ Orbital elements

Epoch: 2026-05-24T21:36:22.459680Z

Period
94.27 min
Inclination
42.9988°
Eccentricity
0.0001413
Mean motion
15.27592742 rev/d
Perigee alt
482.0 km
Apogee alt
484.0 km
Semi-major
6,861.1 km
B*
5.4054e-4
RAAN
320.6682°
Arg perigee
276.5458°
Mean anomaly
83.5233°
Rev number
6,062

§ Raw data

STARLINK-338161 63677U 25085P   26144.90025995  .00014648  00000+0  54054-3 0  99982 63677  42.9988 320.6682 0001413 276.5458  83.5233 15.27592742 60626

JSON: /api/v1/satellites/63677 · /tle

For live sub-satellite position, see the globe view (requires WebGL).

§ Visibility from observer

Set your observer location to see the next 7 days of passes ≥ 10°. The values pass through the URL so the page stays shareable.

No JS? Fill the form by hand. The geolocation button needs JavaScript.